Weather History for Poplar Bluff, MO

Change the Weather History Date:

Friday, November 23, 2012

  Actual Average Record
Temperature  
Mean Temperature 46 °F -  
Max Temperature 57 °F 55 °F 73 °F (1919)
Min Temperature 34 °F 35 °F 14 °F (1929)
Degree Days  
Heating Degree Days 18    
Moisture  
Dew Point 34 °F    
Average Humidity 56    
Maximum Humidity 83    
Minimum Humidity 40    
Precipitation  
Precipitation 0.01 in - - ()
Sea Level Pressure  
Sea Level Pressure 30.24 in    
Wind  
Wind Speed 10 mph (NW)    
Max Wind Speed 21 mph    
Max Gust Speed 29 mph    
Visibility 10 miles    
Events Rain    
Averages and records for this station are not official NWS values.
T = Trace of Precipitation, MM = Missing Value Source: NWS Daily Summary

Daily Weather History Graph

Daily Weather History Graph

Search for Another Location

Airport:

Trip Planner

Search our weather history database for the weather conditions in past years. The results will help you decide how hot, cold, wet, or windy it might be!

Date:

Astronomy

Nov. 23, 2012 Rise Set
Actual Time 6:48 AM CST 4:47 PM CST
Civil Twilight 6:19 AM CST 5:15 PM CST
Nautical Twilight 5:48 AM CST 5:47 PM CST
Astronomical Twilight 5:17 AM CST 6:18 PM CST
Moon 1:56 PM CST (11/23) 2:13 AM CST (11/23)
Length of Visible Light 10h 55m
Length of Day
9h 59m
Waxing Gibbous, 80% of the Moon is Illuminated
Nov 23
Waxing Gibbous
Nov 28
Full
Dec 6
Last Quarter
Dec 13
New
Dec 19
First Quarter

Hourly Weather History & Observations

Time (CST) Temp. Windchill Dew Point Humidity Pressure Visibility Wind Dir Wind Speed Gust Speed Precip Events Conditions
12:53 AM 55.9 °F - 50.0 °F 80% 30.09 in 8.0 mi SW 5.8 mph - 0.01 in Rain Light Rain
1:53 AM 57.0 °F - 51.1 °F 81% 30.11 in 10.0 mi WSW 6.9 mph - 0.00 in   Overcast
2:13 AM 57.2 °F - 51.8 °F 82% 30.12 in 10.0 mi West 6.9 mph - N/A   Overcast
2:38 AM 57.2 °F - 51.8 °F 82% 30.12 in 10.0 mi WNW 8.1 mph - N/A   Overcast
2:53 AM 57.0 °F - 52.0 °F 83% 30.13 in 10.0 mi WNW 9.2 mph - N/A   Overcast
3:01 AM 57.2 °F - 51.8 °F 82% 30.13 in 10.0 mi NW 9.2 mph - N/A   Overcast
3:53 AM 55.9 °F - 42.1 °F 60% 30.15 in 10.0 mi North 17.3 mph 24.2 mph N/A   Overcast
4:53 AM 52.0 °F - 37.0 °F 57% 30.18 in 10.0 mi NNW 13.8 mph - N/A   Clear
6:53 AM 46.9 °F - 36.0 °F 66% 30.24 in 10.0 mi NW 6.9 mph - N/A   Clear
7:53 AM 48.9 °F - 37.0 °F 64% 30.26 in 10.0 mi West 5.8 mph - N/A   Clear
8:53 AM 52.0 °F - 33.1 °F 49% 30.26 in 10.0 mi NW 8.1 mph - N/A   Clear
9:53 AM 54.0 °F - 33.1 °F 45% 30.25 in 10.0 mi NW 17.3 mph 26.5 mph N/A   Clear
10:53 AM 55.0 °F - 33.1 °F 43% 30.25 in 10.0 mi WNW 17.3 mph 26.5 mph N/A   Clear
11:53 AM 54.0 °F - 30.9 °F 41% 30.25 in 10.0 mi NNW 19.6 mph 28.8 mph N/A   Clear
12:53 PM 54.0 °F - 30.0 °F 40% 30.25 in 10.0 mi NW 20.7 mph 25.3 mph N/A   Clear
1:53 PM 54.0 °F - 30.0 °F 40% 30.25 in 10.0 mi NNW 8.1 mph - N/A   Clear
2:53 PM 53.1 °F - 30.0 °F 41% 30.26 in 10.0 mi NW 16.1 mph - N/A   Clear
3:53 PM 50.0 °F - 28.9 °F 44% 30.28 in 10.0 mi NW 11.5 mph 20.7 mph N/A   Clear
4:53 PM 46.9 °F - 28.0 °F 48% 30.29 in 10.0 mi WNW 9.2 mph - N/A   Clear
5:53 PM 44.1 °F 40.1 °F 27.0 °F 51% 30.32 in 10.0 mi NW 6.9 mph - N/A   Clear
6:53 PM 43.0 °F 37.2 °F 25.0 °F 49% 30.33 in 10.0 mi NNW 10.4 mph - N/A   Clear
7:53 PM 42.1 °F 34.9 °F 19.9 °F 41% 30.34 in 10.0 mi NNW 13.8 mph - N/A   Clear
8:53 PM 39.9 °F 32.5 °F 19.0 °F 43% 30.35 in 10.0 mi NNW 12.7 mph - N/A   Clear
9:53 PM 37.9 °F 30.9 °F 19.0 °F 47% 30.36 in 10.0 mi NNW 10.4 mph - N/A   Clear
10:53 PM 36.0 °F 31.1 °F 19.0 °F 50% 30.36 in 10.0 mi NNW 5.8 mph - N/A   Clear
11:53 PM 34.0 °F 28.8 °F 19.0 °F 54% 30.36 in 10.0 mi NW 5.8 mph - N/A   Clear